Regional Weather Roundup
Issued by NWS Charleston, SC

Current Version | Previous Version | Graphics & Text | Print | Product List | Glossary On
Versions: 1 2 3 4 5 6 7 8 9 10 11 12 13 14 15 16 17 18 19 20 21 22 23 24 25 26 27 28 29 30 31 32 33 34 35 36 37 38 39 40 41 42 43 44 45 46 47 48 49 50
000 ASUS42 KCHS 180912 RWRCHS Regional Weather Roundup National Weather Service Charleston SC 400 AM EST THU JAN 18 2018 NOTE: "fair" indicates few or no clouds below 12,000 feet with no significant weather and/or obstructions to visibility. Not all stations are quality controlled. Use data with caution, especially dewpoint observations. SCZ027-030-031-034>040-042>050-181000- ...Southeast South Carolina... CITY SKY/WX TMP DP RH WIND PRES REMARKS N Charleston FAIR 27 19 72 N10 30.31R WCI 17 Waterfront Prk NOT AVBL Mount Pleasant FAIR 30 19 64 N7 30.31S WCI 23 Johns Island FAIR 28 21 74 NW6 30.32R WCI 22 Pinopolis N/A 28 21 74 N17 30.23R WCI 16 Moncks Corner FAIR 27 16 63 NW3 30.31R Summerville FAIR 28 16 59 NW7 30.34R WCI 21 Beaufort MCAS FAIR 28 23 81 NW9 30.36R WCI 19 Beaufort Arpt FAIR 30 23 74 W8 30.35R WCI 23 Hilton Head Is CLOUDY 28 16 59 NW9G15 30.36R WCI 20 Walterboro FAIR 28 18 64 NW7 30.35R WCI 21 Allendale FAIR 25 12 58 NW5 30.36S WCI 19 ...Southern Midlands and Pee Dee... CITY SKY/WX TMP DP RH WIND PRES REMARKS Georgetown CLOUDY 28 21 74 NW7 30.29R WCI 21 Kingstree FAIR 25 16 68 NW7 30.31R WCI 17 Orangeburg FAIR 25 9 50 NW7 30.34R WCI 17 Barnwell N/A 23 12 63 W5 30.37R WCI 17 Aiken FAIR 18 14 86 W6 30.38R WCI 9 Manning FAIR 27 12 54 MISG 30.32R Columbia FAIR 24 14 65 NW6 30.34R WCI 17 Sumter FAIR 22 9 57 NW8 30.30R WCI 13 Florence FAIR 22 11 62 NW12 30.30S WCI 10 Myrtle Beach CLOUDY 28 20 71 NW16G23 30.27R WCI 16 N Myrtle Beach CLOUDY 28 21 75 NW9G20 30.24R WCI 19 $$ GAZ063-065-086>088-099>101-113>116-118-119-134>141-150-181000- ...Southeast Georgia... CITY SKY/WX TMP DP RH WIND PRES REMARKS Savannah Arpt FAIR 25 12 58 NW8 30.38R WCI 16 Hunter AAF FAIR 25 11 55 NW9 30.34S WCI 15 Fort Stewart FAIR 24 11 56 W8 30.38R WCI 15 Statesboro FAIR 24 10 55 NW6 30.39R WCI 17 Sylvania FAIR 24 16 70 NW7 30.39R WCI 16 Claxton FAIR 25 13 61 W6 30.40R WCI 18 ...CSRA, Central and far Southeast Georgia... CITY SKY/WX TMP DP RH WIND PRES REMARKS Thomson FAIR 19 9 66 NW5 30.44R WCI 12 Augusta-Bush FAIR 22 10 60 NW5 30.39R WCI 16 Augusta-Daniel FAIR 24 8 50 W5 30.37R WCI 18 Swainsboro FAIR 23 14 68 W3 30.41R Vidalia FAIR 25 14 63 NW8 30.41R WCI 16 Eastman FAIR 22 6 48 NW3 30.45F Hazlehurst FAIR 24 6 45 NW5 30.41S WCI 19 Alma FAIR 24 11 57 NW9 30.41S WCI 14 Waycross FAIR 24 9 51 NW8 30.42R WCI 15 Jesup FAIR 27 12 54 NW9 30.40R WCI 17 Baxley FAIR 23 10 58 NW7 30.41R WCI 15 Brunswick FAIR 25 12 58 W7 30.40S WCI 17 Saint Simons FAIR 26 12 55 NW9 30.39S WCI 17 $$ SCZ027-028-034-036>038-045-046-048>050-GAZ119-141-181000- ...Lake and Supplemental Coastal Observations... STATION/POSITION TIME TEMP WIND PRES WAVE SWELL AIR SEA DIR/SP/G HT/PER HT/PER/DIR (UTC) (F) (DEG/KT/KT) (MB) (FT/S) (FT/S/D) Winyah Bay 0745 28 330/ 10 1024.0 Lake Murray 0820 21 300/ 3/ 8 1026.4R ACE Basin NERRS 0745 31 320/ 3 1026.0 Fort Pulaski 0842 29 46 310/ 16/ 19 1028.2R Sapelo Island 0800 28 310/ 10 1029.0 $$ ANZ835-935-AMZ111-154-330-350-352-354-370-450-454-472-181000- ...C-MAN and Buoy Observations... STATION/POSITION TIME TEMP WIND PRES WAVE SWELL AIR SEA DIR/SP/G HT/PER HT/PER/DIR (UTC) (F) (DEG/KT/KT) (MB) (FT/S) (FT/S/D) Buoy 41004 0850 36 67 320/ 19/ 27 1024.3R 7/ 6 2/110/11 Buoy 41008 0850 32 50 310/ 19/ 23 1027.6S 4/ 4 2/100/11 Folly Beach CMAN 0800 30 320/ 11/ 18 1026.2R Capers Nearshore 0808 28 48 330/ 19/ 27 1025.1R Fripp Nearshore 0808 31 45 300/ 16/ 21 1026.5R STATION/POSITION TIME TEMP WIND PRES WAVE SWELL AIR SEA DIR/SP/G HT/PER HT/PER/DIR (UTC) (F) (DEG/KT/KT) (MB) (FT/S) (FT/S/D) 5E St. Marys GA 0830 49 N/A 4/11 2/ 90/11 Frying Pan Buoy 0850 33 65 330/ 25/ 33 1022.0R 8/ 6 2/110/11 Buoy 41025 0900 34 69 330/ 29/ 35 1017.0 Cape Lookout NC 0800 320/ 18/ 21 1020.0R Buoy 41002 0850 58 70 280/ 31/ 41 1013.8R 14/ 8 2/240/17 Buoy 41010 NOT AVBL St Augustine FL 0900 29 48 320/ 13/ 15 1028.0R $$

USA.gov is the U.S. government's official web portal to all federal, state and local government web resources and services.